Weather History for Buffalo, SD

Change the Weather History Date:

Saturday, December 8, 2012

  Actual Average Record
Temperature  
Mean Temperature 21 °F 22 °F  
Max Temperature 36 °F 32 °F 57 °F (2006)
Min Temperature 6 °F 12 °F -15 °F (2013)
Degree Days  
Heating Degree Days 44 43  
Month to date heating degree days 225 336  
Since 1 July heating degree days 1925 2234  
Cooling Degree Days 0 0  
Month to date cooling degree days 0 0  
Year to date cooling degree days 853 513  
Moisture  
Dew Point 15 °F    
Average Humidity 80    
Maximum Humidity 96    
Minimum Humidity 64    
Precipitation  
Precipitation 0.03 in 0.01 in 0.03 in (2012)
Month to date precipitation 0.09 0.05  
Year to date precipitation 8.37 14.28  
Sea Level Pressure  
Sea Level Pressure 29.79 in    
Wind  
Wind Speed 15 mph (NNW)    
Max Wind Speed 32 mph    
Max Gust Speed 37 mph    
T = Trace of Precipitation, MM = Missing Value Source: NWS Daily Summary

Daily Weather History Graph

Daily Weather History Graph

Search for Another Location

Airport:

Trip Planner

Search our weather history database for the weather conditions in past years. The results will help you decide how hot, cold, wet, or windy it might be!

Date:

Astronomy

Dec. 08, 2012 Rise Set
Actual Time 7:22 AM MST 4:10 PM MST
Civil Twilight 6:48 AM MST 4:44 PM MST
Nautical Twilight 6:10 AM MST 5:21 PM MST
Astronomical Twilight 5:34 AM MST 5:57 PM MST
Moon 1:36 AM MST (12/8) 12:53 PM MST (12/8)
Length of Visible Light 9h 56m
Length of Day
8h 48m
Waning Crescent, 27% of the Moon is Illuminated
Dec 8
Waning Crescent
Dec 13
New
Dec 19
First Quarter
Dec 28
Full
Jan 4
Last Quarter

Hourly Weather History & Observations

Time (MST) Temp. Windchill Dew Point Humidity Pressure Visibility Wind Dir Wind Speed Gust Speed Precip Events Conditions
12:56 AM 18.0 °F 12.7 °F 16.0 °F 92% 29.75 in - SE 3.5 mph - N/A   Unknown
1:56 AM 19.0 °F 9.0 °F 16.0 °F 88% 29.73 in - SE 8.1 mph - N/A   Unknown
2:56 AM 19.9 °F 7.3 °F 17.1 °F 89% 29.70 in - South 12.7 mph - N/A   Unknown
3:56 AM 18.0 °F 8.7 °F 15.1 °F 88% 29.69 in - SSE 6.9 mph - N/A   Unknown
4:56 AM 19.9 °F 8.6 °F 16.0 °F 85% 29.65 in - SSE 10.4 mph - N/A   Unknown
5:56 AM 19.0 °F 9.0 °F 15.1 °F 85% 29.64 in - ESE 8.1 mph - N/A   Unknown
6:56 AM 19.0 °F 10.0 °F 15.1 °F 85% 29.65 in - ESE 6.9 mph - N/A   Unknown
7:56 AM 18.0 °F 8.7 °F 15.1 °F 88% 29.65 in - SE 6.9 mph - N/A   Unknown
8:56 AM 21.0 °F 13.4 °F 18.0 °F 88% 29.66 in - SSE 5.8 mph - N/A   Unknown
9:56 AM 21.9 °F 17.2 °F 19.0 °F 89% 29.67 in - WNW 3.5 mph - N/A   Unknown
10:56 AM 28.9 °F - 21.9 °F 75% 29.65 in - Calm Calm - N/A   Unknown
11:56 AM 34.0 °F 25.0 °F 24.1 °F 67% 29.65 in - WNW 12.7 mph 17.3 mph N/A   Unknown
12:56 PM 35.1 °F 25.5 °F 24.1 °F 64% 29.65 in - WNW 15.0 mph - N/A   Unknown
1:56 PM 34.0 °F 22.1 °F 25.0 °F 70% 29.66 in - WNW 21.9 mph - N/A   Unknown
2:56 PM 32.0 °F 20.1 °F 26.1 °F 79% 29.69 in - NW 19.6 mph - N/A   Unknown
3:56 PM 30.0 °F 16.9 °F 25.0 °F 82% 29.75 in - NW 21.9 mph 31.1 mph N/A   Unknown
4:56 PM 23.0 °F 8.0 °F 21.0 °F 92% 29.81 in - NW 20.7 mph 34.5 mph 0.01 in   Unknown
5:42 PM 19.0 °F 1.6 °F 16.0 °F 88% 29.71 in - NNE 24.2 mph 29.9 mph N/A   Unknown
5:56 PM 18.0 °F 1.3 °F 14.0 °F 84% 29.88 in - North 20.7 mph 28.8 mph 0.01 in   Unknown
6:56 PM 12.0 °F -9.2 °F 7.0 °F 80% 29.94 in - North 28.8 mph 35.7 mph 0.01 in   Unknown
7:56 PM 10.0 °F -11.5 °F 6.1 °F 84% 30.00 in - NNW 27.6 mph 34.5 mph N/A   Unknown
8:56 PM 9.0 °F -11.4 °F 3.9 °F 80% 30.05 in - NNW 23.0 mph 29.9 mph N/A   Unknown
9:56 PM 8.1 °F -12.2 °F 3.9 °F 83% 30.11 in - NNW 21.9 mph - N/A   Unknown
10:56 PM 7.0 °F -14.5 °F 3.0 °F 84% 30.13 in - NNW 24.2 mph 32.2 mph N/A   Unknown
11:56 PM 6.1 °F -15.2 °F 1.0 °F 80% 30.16 in - NNW 23.0 mph - N/A   Unknown